Simultaneous Nadir Overpasses (SNOs) Predictions

Prediction of SNOs between GOES-14 and AQUA Satellite Orbit:

Table of predicted SNOs for the next 14.0 days since TLE Epoch: 7/18/2025
Index Date Time (GOES-14) GOES-14 Lat,Lon AQUA Lat,Lon Distance(km) Time Diff (sec)
1 07/19/2025 09:53:53 -0.79,-108.02 -1.10,-106.58 163.82 80
2 07/19/2025 22:10:29 0.81,-108.02 0.12,-111.24 366.41 80
3 07/21/2025 21:52:45 0.81,-108.00 1.17,-106.24 199.41 80
4 07/22/2025 10:09:14 -0.83,-107.98 -0.22,-110.87 328.24 80
5 07/24/2025 09:51:30 -0.83,-107.96 -1.29,-105.88 237.55 80
6 07/24/2025 22:08:06 0.84,-107.96 0.27,-110.53 292.95 80
7 07/26/2025 21:50:22 0.84,-107.94 1.37,-105.54 274.03 80
8 07/27/2025 10:09:30 -0.85,-107.94 -0.37,-110.16 252.56 80
9 07/29/2025 09:49:05 -0.85,-107.92 -1.44,-105.16 314.68 80
10 07/29/2025 22:05:41 0.86,-107.92 0.44,-109.81 215.87 80
11 07/31/2025 21:47:56 0.86,-107.91 1.53,-104.82 351.80 80
12 08/01/2025 10:07:03 -0.87,-107.91 -0.54,-109.44 174.07 80
